Wind_Speed
31 31 30 30 30 30 30 30 31 30 30 30 30 31 31 31 31 31 31 31 31 31 31 31 31 31 31 31 31 31 32 33 34 34 35 37 38 39 40 41 41 41 42 42
30 30 29 29 28 28 29 30 31 31 30 30 31 31 31 31 32 31 31 31 31 30 30 30 31 31 30 30 30 31 31 32 32 33 34 35 36 38 39 40 42 42 42 43
30 29 29 28 27 28 29 30 30 31 31 31 31 31 31 31 32 32 31 30 30 30 30 29 29 30 29 29 30 30 30 31 32 32 33 35 37 38 39 40 42 43 42 42
29 29 30 27 26 27 27 28 29 30 31 31 32 32 32 32 32 32 30 30 29 29 29 29 29 28 28 28 28 29 29 29 30 31 32 32 34 36 38 39 40 41 41 41
28 29 29 27 27 27 27 27 29 30 30 31 31 32 32 32 32 32 31 29 29 28 28 28 28 28 29 28 28 27 28 30 31 31 31 32 33 34 36 39 40 41 41 41
28 28 28 27 27 28 29 29 28 29 29 30 30 30 30 31 31 31 31 30 30 29 28 28 28 28 28 28 29 28 27 28 29 30 31 32 33 33 34 37 40 41 42 42
28 28 29 27 27 27 28 29 30 30 30 30 31 31 30 30 30 31 30 30 30 30 28 28 28 27 28 28 28 28 27 27 27 29 30 32 32 33 34 36 38 39 41 42
28 29 29 29 28 28 29 30 31 32 32 32 31 31 30 30 30 30 30 30 30 30 29 28 26 26 26 26 26 26 25 25 26 27 29 31 31 32 34 35 37 38 40 41
27 28 29 29 29 30 31 31 32 32 32 32 32 32 31 30 30 30 30 29 29 29 29 28 26 25 25 25 25 25 25 25 26 27 28 29 30 31 32 33 35 36 38 39
27 27 28 29 31 31 31 32 32 33 33 33 32 31 30 29 29 30 30 30 29 29 29 29 28 26 25 25 24 24 25 26 27 27 29 30 31 31 31 32 34 35 37 38
28 28 28 28 29 30 30 31 32 31 31 31 32 30 30 29 29 30 30 29 28 28 27 27 26 26 25 25 24 24 25 26 26 27 28 29 31 31 31 32 33 34 35 36
26 27 27 27 28 29 29 30 31 31 31 31 31 30 30 30 29 29 28 28 28 27 26 26 26 25 24 24 24 24 25 26 26 27 27 29 30 30 31 31 32 33 34 35
25 25 26 26 27 28 29 30 31 31 30 30 29 29 28 28 28 28 28 28 28 27 27 26 25 25 25 25 25 25 26 26 27 28 28 29 29 30 30 30 31 31 32 33
25 26 26 27 27 28 29 28 29 30 29 28 28 28 28 27 27 27 27 28 28 27 27 26 26 26 26 26 27 27 27 27 27 27 27 27 28 28 29 29 29 30 31 32
26 26 26 26 27 27 27 27 27 27 27 27 28 27 27 27 26 26 27 27 27 27 27 26 26 26 27 27 27 27 27 27 26 26 26 26 26 26 27 27 27 28 29 31
25 25 25 26 26 26 27 26 26 27 26 27 27 27 27 26 26 26 26 26 26 25 25 25 26 26 27 27 27 27 27 26 26 25 25 25 26 26 26 26 27 27 28 28
25 25 25 25 25 26 26 26 26 26 26 26 26 26 25 24 24 25 25 24 24 24 24 24 25 25 26 27 27 27 26 26 25 25 25 25 25 25 25 25 26 26 27 28
25 25 25 25 25 25 26 26 26 26 26 26 25 25 24 24 24 24 24 24 24 23 24 24 25 25 25 26 26 26 25 25 25 24 24 24 24 24 23 24 24 25 25 26
25 25 24 25 25 26 26 26 27 27 26 26 25 24 24 24 24 24 24 24 24 24 23 23 24 24 24 24 24 24 24 24 24 24 24 24 24 24 24 24 24 24 25 26
24 24 25 25 25 26 27 27 27 27 26 25 25 25 24 24 24 24 24 24 23 23 23 23 23 23 23 23 23 23 23 24 24 24 24 24 24 24 25 25 25 25 25 26
24 25 25 26 26 27 27 27 26 26 25 25 24 24 23 23 23 23 23 23 23 22 22 22 22 22 22 22 22 22 23 22 23 23 24 24 24 24 25 25 25 26 26 26
25 25 26 26 26 26 26 26 26 26 25 24 23 23 22 22 22 22 22 22 22 22 22 22 22 21 21 21 21 21 22 22 22 23 23 24 24 25 25 25 25 26 26 27
25 25 25 25 26 26 25 25 25 24 24 23 22 21 21 21 21 21 21 21 20 20 21 21 21 21 21 21 21 21 21 22 22 22 23 23 23 24 24 25 25 26 26 27
25 25 25 25 24 24 23 23 23 23 22 21 20 20 19 19 20 20 20 20 20 19 19 20 20 20 20 21 21 21 21 22 22 22 22 22 23 23 24 25 25 26 26 27
24 24 24 24 23 23 22 22 22 21 21 20 20 19 19 19 20 20 20 20 20 19 20 20 20 20 20 21 21 21 21 21 22 22 22 22 23 23 24 25 26 26 26 27
23 23 23 23 22 22 21 21 20 20 20 20 20 20 20 20 20 20 20 20 20 20 21 21 21 21 21 21 21 21 21 21 21 21 22 22 23 23 23 24 25 25 26 26
23 23 23 22 22 21 20 20 20 20 20 20 20 20 20 20 20 20 21 21 21 21 21 21 21 21 21 21 21 21 22 22 22 22 22 23 23 23 24 24 24 25 26 26
Wind_Direction
291 290 288 288 287 285 284 283 284 285 284 284 285 285 285 286 287 287 287 287 286 284 284 282 281 276 273 270 268 266 263 261 260 258 254 250 249 248 248 248 247 247 248 248
291 289 287 287 287 286 284 284 285 285 283 284 283 284 284 284 286 287 289 288 287 285 283 282 281 279 273 270 268 266 263 262 261 258 253 250 250 251 250 249 248 249 250 249
294 291 287 287 289 288 286 285 285 286 286 285 285 286 285 285 286 286 287 287 287 287 284 283 283 280 276 270 267 265 263 261 259 255 253 252 253 253 252 251 249 250 251 252
296 294 291 290 289 288 287 286 285 286 286 286 288 287 287 286 285 285 286 285 285 287 285 283 282 281 277 272 268 265 263 261 259 256 254 254 255 255 254 253 251 253 254 254
296 295 293 290 289 289 287 286 286 287 287 288 289 289 288 286 284 284 284 285 285 285 286 285 282 279 275 272 269 268 265 262 260 257 255 255 256 257 256 255 255 256 256 255
296 294 294 293 290 290 288 287 288 289 289 289 289 289 288 285 283 283 283 283 284 285 286 286 283 280 276 272 271 269 267 264 259 256 256 256 257 258 259 258 260 260 259 257
295 294 293 294 293 292 289 289 288 288 288 290 289 290 288 286 285 284 284 284 284 285 285 285 283 281 276 273 271 269 267 265 261 258 258 258 258 258 260 261 262 262 261 259
295 295 294 294 292 290 289 288 289 289 289 289 289 289 288 285 285 285 285 286 285 284 284 284 282 280 277 274 272 269 267 266 264 261 260 260 260 261 261 262 263 263 262 260
294 293 292 292 292 291 290 290 290 290 290 289 289 289 288 286 285 284 285 287 287 285 284 284 282 281 279 275 272 270 268 267 265 263 262 264 265 263 263 264 264 263 261 260
292 293 291 291 292 293 291 290 290 290 289 288 289 290 288 286 287 287 287 288 287 286 284 283 283 281 281 280 277 273 271 269 268 266 265 265 266 266 266 265 264 262 260 259
290 291 290 291 291 291 291 290 292 292 291 290 289 288 288 287 288 288 287 287 288 286 284 282 281 281 281 281 279 276 275 272 271 269 268 267 266 266 266 266 264 262 261 259
293 292 291 292 292 293 293 293 294 295 292 290 290 289 288 287 288 288 286 285 285 284 283 281 279 278 277 279 280 279 278 275 272 272 270 269 267 266 266 266 265 264 263 261
294 294 293 293 295 296 297 297 297 298 297 294 292 291 290 289 288 286 285 285 284 283 281 280 278 276 275 277 279 279 279 278 276 275 273 271 270 269 268 267 266 266 265 262
294 294 295 296 298 299 300 300 300 299 298 295 293 292 291 290 290 288 286 284 283 282 281 280 278 277 277 278 278 278 279 278 277 276 274 272 270 270 269 268 266 265 264 263
296 297 298 300 301 301 300 301 302 301 299 296 294 293 293 292 289 289 288 286 284 281 279 279 278 276 277 278 278 278 278 278 277 277 274 272 271 270 269 268 267 267 265 264
300 299 300 301 301 301 302 302 302 301 300 298 295 293 293 293 292 290 289 288 285 282 280 279 278 277 278 278 278 279 278 277 276 275 275 274 273 271 269 267 266 266 265 264
304 302 300 299 300 303 304 304 304 303 302 300 298 296 295 294 294 292 292 290 287 284 283 281 280 280 279 279 279 279 278 276 276 275 275 275 274 272 270 268 267 266 265 264
309 307 305 304 304 305 305 304 304 303 302 301 300 298 296 296 295 293 292 290 288 287 286 284 282 281 281 279 279 278 277 276 275 274 274 274 274 272 271 271 269 268 266 264
310 308 308 307 306 306 307 306 305 304 302 301 300 299 297 296 295 294 293 291 289 288 287 285 285 285 283 282 280 277 276 275 275 274 274 274 273 272 272 273 272 271 269 267
312 310 309 309 308 308 308 307 306 305 304 303 301 299 296 295 295 294 293 292 290 288 287 286 287 287 286 284 281 279 278 276 275 274 274 274 274 273 272 273 273 272 271 271
314 312 310 308 307 307 307 307 307 307 307 305 303 301 298 296 295 295 294 293 291 288 288 287 287 287 287 285 283 282 280 278 276 275 275 276 275 274 274 273 273 273 273 273
316 315 313 311 309 309 309 309 309 309 308 307 305 303 301 299 297 297 296 294 291 289 288 288 287 287 287 286 285 285 283 281 280 279 279 278 277 276 275 275 275 275 274 274
320 319 317 315 314 313 312 312 312 311 311 309 307 305 303 302 300 299 298 297 294 291 290 290 289 288 287 286 286 285 285 285 283 282 281 279 278 277 276 275 275 276 276 276
321 321 321 320 319 318 317 315 315 315 314 312 311 309 308 307 305 304 302 300 298 296 294 293 292 291 289 289 288 287 286 286 285 284 282 280 280 279 278 277 277 278 279 278
323 323 323 324 323 321 320 318 318 318 317 316 314 312 311 309 307 306 305 303 301 298 296 295 294 293 291 291 290 289 288 288 287 285 284 283 282 281 280 279 279 279 279 279
325 325 325 326 325 324 323 322 321 320 320 319 317 315 313 311 309 308 307 305 303 301 299 297 296 295 294 293 292 291 290 289 288 287 286 286 285 284 284 283 282 281 281 281
329 329 329 329 328 327 326 325 323 322 321 320 320 319 316 314 313 311 309 308 306 304 301 299 297 296 295 294 293 292 290 289 288 288 288 288 287 287 286 286 284 284 283 283
Height
5579 5576 5573 5572 5570 5568 5565 5563 5561 5560 5557 5555 5552 5550 5547 5545 5543 5540 5538 5535 5533 5530 5528 5525 5522 5520 5519 5518 5517 5516 5516 5516 5517 5517 5519 5520 5522 5524 5526 5528 5531 5534 5537 5540
5571 5568 5565 5563 5562 5559 5557 5555 5552 5550 5549 5546 5543 5541 5539 5536 5534 5532 5529 5527 5524 5522 5519 5517 5514 5512 5510 5509 5508 5508 5508 5508 5508 5509 5510 5511 5513 5515 5517 5519 5521 5523 5526 5529
5561 5559 5556 5555 5554 5551 5548 5546 5544 5541 5540 5537 5535 5532 5529 5527 5525 5522 5520 5518 5515 5513 5510 5508 5505 5503 5502 5501 5500 5500 5499 5499 5499 5500 5502 5503 5504 5506 5507 5509 5511 5513 5516 5518
5552 5551 5548 5550 5545 5543 5540 5538 5535 5533 5530 5528 5525 5523 5520 5517 5515 5513 5511 5509 5506 5504 5502 5500 5497 5495 5494 5493 5492 5491 5491 5491 5491 5492 5493 5494 5495 5496 5498 5499 5501 5503 5505 5507
5544 5541 5539 5540 5537 5534 5531 5529 5527 5524 5522 5519 5516 5514 5512 5508 5506 5503 5501 5499 5497 5495 5493 5491 5489 5487 5486 5485 5484 5483 5482 5482 5483 5483 5484 5485 5486 5487 5488 5490 5491 5492 5494 5496
5536 5533 5531 5532 5528 5524 5523 5521 5518 5515 5512 5510 5507 5505 5504 5499 5497 5495 5493 5491 5489 5486 5484 5482 5480 5479 5477 5476 5476 5475 5474 5474 5474 5475 5476 5477 5478 5478 5479 5480 5481 5482 5483 5484
5528 5524 5523 5522 5519 5516 5515 5513 5509 5506 5503 5501 5498 5496 5494 5490 5488 5486 5484 5482 5480 5478 5476 5474 5472 5470 5469 5468 5467 5466 5466 5466 5466 5467 5467 5468 5469 5469 5469 5470 5470 5471 5472 5473
5520 5517 5517 5513 5510 5508 5505 5502 5499 5496 5494 5491 5489 5486 5484 5481 5479 5477 5475 5473 5471 5469 5467 5465 5463 5462 5461 5459 5458 5458 5458 5458 5458 5458 5459 5459 5459 5459 5459 5459 5460 5460 5460 5461
5512 5511 5507 5503 5500 5498 5495 5493 5490 5487 5485 5482 5480 5477 5475 5473 5471 5468 5466 5464 5462 5460 5458 5456 5454 5453 5452 5451 5450 5450 5450 5450 5450 5449 5450 5450 5450 5450 5449 5449 5449 5449 5449 5449
5503 5501 5498 5495 5491 5488 5485 5483 5480 5477 5475 5472 5470 5468 5466 5463 5462 5460 5458 5455 5453 5451 5449 5448 5446 5445 5444 5443 5442 5442 5442 5441 5441 5441 5441 5441 5440 5440 5440 5439 5439 5438 5438 5438
5494 5492 5489 5487 5483 5480 5476 5473 5470 5468 5465 5462 5460 5458 5456 5454 5452 5450 5448 5446 5444 5442 5441 5439 5438 5437 5436 5435 5434 5434 5433 5433 5433 5432 5432 5431 5431 5430 5430 5429 5428 5428 5427 5428
5486 5483 5480 5478 5474 5471 5468 5465 5462 5458 5456 5453 5451 5449 5447 5445 5443 5441 5439 5437 5435 5434 5432 5431 5430 5429 5428 5427 5427 5426 5425 5425 5424 5423 5422 5422 5421 5421 5419 5419 5418 5417 5417 5417
5477 5474 5472 5469 5466 5462 5459 5456 5453 5449 5446 5444 5442 5439 5437 5435 5434 5432 5430 5428 5427 5425 5424 5423 5422 5421 5420 5419 5419 5418 5417 5416 5415 5414 5413 5412 5412 5411 5410 5409 5407 5407 5406 5406
5470 5467 5464 5461 5458 5455 5451 5448 5445 5441 5438 5435 5433 5431 5429 5427 5425 5423 5421 5420 5418 5417 5415 5414 5413 5413 5412 5411 5410 5409 5408 5407 5406 5405 5404 5403 5402 5401 5399 5399 5398 5397 5396 5396
5462 5459 5457 5454 5450 5447 5444 5440 5437 5434 5431 5428 5425 5423 5421 5419 5417 5415 5413 5411 5409 5408 5407 5406 5405 5404 5404 5403 5401 5400 5399 5398 5397 5395 5394 5393 5392 5391 5390 5389 5388 5387 5386 5385
5455 5452 5449 5446 5443 5440 5437 5433 5430 5427 5424 5421 5418 5415 5413 5411 5409 5407 5405 5403 5401 5399 5398 5397 5396 5395 5394 5393 5392 5391 5390 5389 5387 5386 5385 5384 5383 5382 5381 5380 5379 5378 5377 5377
5449 5446 5443 5440 5436 5433 5430 5426 5423 5420 5416 5413 5410 5408 5406 5403 5401 5399 5397 5395 5393 5391 5390 5389 5388 5386 5385 5384 5383 5382 5381 5379 5378 5377 5376 5375 5374 5373 5372 5371 5370 5369 5369 5368
5441 5438 5435 5432 5429 5426 5423 5420 5416 5413 5409 5406 5403 5400 5398 5396 5394 5392 5389 5387 5385 5384 5382 5381 5379 5378 5377 5375 5374 5373 5372 5371 5370 5369 5368 5367 5365 5364 5363 5362 5361 5361 5360 5360
5435 5432 5429 5425 5422 5419 5416 5412 5409 5406 5402 5399 5396 5393 5391 5389 5387 5384 5382 5380 5378 5376 5375 5373 5371 5370 5368 5367 5365 5364 5363 5362 5361 5360 5359 5358 5357 5356 5355 5354 5353 5352 5352 5351
5429 5425 5422 5419 5415 5412 5409 5405 5402 5398 5395 5392 5389 5386 5384 5381 5379 5377 5375 5373 5371 5369 5367 5365 5363 5362 5360 5359 5357 5356 5355 5354 5353 5352 5351 5350 5349 5348 5347 5346 5345 5344 5343 5342
5423 5419 5416 5412 5409 5406 5402 5398 5395 5391 5388 5384 5381 5379 5376 5374 5372 5370 5367 5365 5363 5361 5359 5358 5356 5354 5353 5351 5350 5348 5347 5346 5344 5343 5342 5341 5340 5339 5338 5337 5336 5335 5334 5333
5417 5413 5409 5406 5402 5399 5395 5391 5388 5384 5381 5377 5374 5372 5369 5367 5365 5362 5360 5358 5356 5354 5352 5350 5348 5347 5345 5344 5342 5340 5339 5338 5336 5335 5334 5332 5331 5330 5329 5328 5327 5326 5325 5324
5410 5407 5403 5399 5396 5392 5388 5384 5381 5377 5374 5371 5368 5365 5362 5360 5358 5356 5353 5351 5349 5347 5345 5343 5341 5339 5338 5336 5334 5333 5331 5330 5328 5327 5325 5324 5323 5321 5320 5319 5318 5317 5315 5314
5405 5401 5397 5393 5389 5385 5382 5378 5375 5371 5368 5365 5362 5359 5356 5354 5352 5349 5347 5345 5342 5340 5338 5336 5334 5332 5331 5329 5327 5325 5324 5322 5320 5318 5317 5316 5314 5313 5312 5310 5309 5308 5306 5305
5399 5395 5391 5387 5383 5380 5376 5373 5369 5366 5362 5359 5356 5353 5351 5348 5346 5343 5341 5338 5336 5334 5332 5330 5328 5326 5324 5322 5319 5318 5316 5314 5312 5310 5309 5308 5306 5305 5303 5302 5300 5299 5297 5296
5394 5390 5386 5382 5378 5375 5371 5367 5364 5361 5357 5354 5351 5348 5345 5343 5340 5337 5335 5332 5329 5327 5325 5323 5320 5318 5316 5314 5312 5310 5308 5306 5304 5303 5301 5299 5298 5296 5294 5293 5291 5289 5288 5286
5389 5385 5381 5377 5374 5370 5366 5363 5359 5356 5353 5350 5346 5343 5340 5337 5334 5331 5328 5325 5323 5320 5317 5315 5313 5310 5308 5306 5304 5302 5300 5298 5296 5294 5293 5291 5289 5287 5286 5284 5282 5280 5278 5277